Bloomington, IN

12:22 AM EST on January 20, 2018 (GMT -0500)
Monroe County

Weather History for KBMG - January, 2007

Change the Weather History Date:

Tuesday, January 30, 2007

  Actual Average Record
Temperature  
Mean Temperature 24 °F 30 °F  
Max Temperature 33 °F 40 °F 68 °F (2013)
Min Temperature 14 °F 21 °F -11 °F (2004)
Degree Days  
Heating Degree Days 42 35  
Month to date heating degree days 1072  
Since 1 July heating degree days 3145  
Cooling Degree Days 0 0  
Month to date cooling degree days 0  
Year to date cooling degree days 0  
Moisture  
Dew Point 10 °F    
Average Humidity 64    
Maximum Humidity 86    
Minimum Humidity 49    
Precipitation  
Precipitation 0.00 in 0.08 in 0.99 in (2013)
Month to date precipitation 3.21  
Year to date precipitation 3.21  
Sea Level Pressure  
Sea Level Pressure 30.10 in    
Wind  
Wind Speed 12 mph (West)    
Max Wind Speed 23 mph    
Max Gust Speed 32 mph    
Visibility 8 miles    
Events Snow    
T = Trace of Precipitation, MM = Missing Value Source: NWS Daily Summary

Daily Weather History Graph

Daily Weather History Graph

Search for Another Location

Airport or City:

Trip Planner

Search our weather history database for the weather conditions in past years. The results will help you decide how hot, cold, wet, or windy it might be!

Date:

Astronomy

Jan. 30, 2007 Rise Set
Actual Time 7:55 AM EST 6:04 PM EST
Civil Twilight 7:26 AM EST 6:33 PM EST
Nautical Twilight 6:54 AM EST 7:05 PM EST
Astronomical Twilight 6:23 AM EST 7:36 PM EST
Moon 3:23 PM EST (1/30) 6:24 AM EST (1/30)
Length of Visible Light 11h 06m
Length of Day
10h 09m
Waxing Gibbous, 93% of the Moon is Illuminated
Jan 30
Waxing Gibbous
Feb 2
Full
Feb 10
Last Quarter
Feb 17
New
Feb 24
First Quarter

Hourly Weather History & Observations

Time (EST) Temp. Windchill Dew Point Humidity Pressure Visibility Wind Dir Wind Speed Gust Speed Precip Events Conditions
12:53 AM 33.1 °F 24.4 °F 21.0 °F 61% 29.96 in 10.0 mi SW 11.5 mph - N/A   Overcast
1:53 AM 32.0 °F 23.6 °F 21.9 °F 66% 29.95 in 10.0 mi WSW 10.4 mph - N/A   Mostly Cloudy
2:26 AM 32.0 °F 24.8 °F 23.0 °F 69% 29.93 in 5.0 mi West 8.1 mph - 0.00 in Snow Light Snow
2:44 AM 30.2 °F 20.8 °F 24.8 °F 80% 29.94 in 1.8 mi WSW 11.5 mph - 0.00 in Snow Light Snow
2:53 AM 30.9 °F 22.8 °F 25.0 °F 79% 29.96 in 1.8 mi WSW 9.2 mph - 0.00 in Snow Light Snow
3:00 AM 30.2 °F 21.9 °F 24.8 °F 80% 29.93 in 2.0 mi WSW 9.2 mph 17.3 mph 0.00 in Snow Light Snow
3:10 AM 30.2 °F 22.6 °F 24.8 °F 80% 29.93 in 5.0 mi WSW 8.1 mph - 0.00 in Snow Light Snow
3:20 AM 30.2 °F 21.3 °F 24.8 °F 80% 29.93 in 9.0 mi WSW 10.4 mph - 0.00 in   Overcast
3:39 AM 30.2 °F 22.6 °F 24.8 °F 80% 29.92 in 6.0 mi WSW 8.1 mph - 0.00 in Snow Light Snow
3:44 AM 28.4 °F 14.4 °F 24.8 °F 86% 29.93 in 1.8 mi WNW 23.0 mph 32.2 mph 0.00 in Snow Light Snow
3:53 AM 25.0 °F 12.2 °F 18.0 °F 75% 29.97 in 1.5 mi WNW 16.1 mph 28.8 mph 0.00 in Snow Light Snow
4:00 AM 24.8 °F 11.5 °F 17.6 °F 74% 29.95 in 3.0 mi NW 17.3 mph 23.0 mph 0.00 in Snow Light Snow
4:13 AM 24.8 °F 12.9 °F 15.8 °F 69% 29.96 in 9.0 mi WNW 13.8 mph - 0.00 in   Overcast
4:53 AM 23.0 °F 13.9 °F 15.1 °F 72% 29.99 in 9.0 mi WNW 8.1 mph - 0.00 in   Overcast
5:53 AM 21.9 °F 8.7 °F 8.1 °F 55% 30.01 in 10.0 mi WNW 15.0 mph 20.7 mph 0.00 in   Overcast
6:53 AM 18.0 °F 3.1 °F 3.0 °F 52% 30.05 in 10.0 mi WNW 16.1 mph 20.7 mph N/A   Clear
7:53 AM 16.0 °F 1.7 °F 1.9 °F 54% 30.09 in 10.0 mi WNW 13.8 mph - N/A   Clear
8:53 AM 15.1 °F -1.1 °F -0.0 °F 51% 30.11 in 10.0 mi WNW 17.3 mph 21.9 mph N/A   Clear
9:53 AM 16.0 °F 1.1 °F -0.0 °F 49% 30.13 in 10.0 mi WNW 15.0 mph 25.3 mph N/A   Clear
10:53 AM 17.1 °F 2.0 °F 1.9 °F 52% 30.15 in 10.0 mi WNW 16.1 mph 25.3 mph N/A   Partly Cloudy
11:53 AM 17.1 °F 2.5 °F 1.9 °F 52% 30.17 in 10.0 mi West 15.0 mph 20.7 mph N/A   Mostly Cloudy
12:46 PM 19.4 °F 4.5 °F 3.2 °F 49% 30.14 in 10.0 mi West 17.3 mph 21.9 mph N/A   Mostly Cloudy
12:53 PM 19.0 °F 4.5 °F 3.9 °F 52% 30.16 in 10.0 mi West 16.1 mph - N/A   Overcast
1:04 PM 17.6 °F 3.7 °F 5.0 °F 58% 30.14 in 10.0 mi WNW 13.8 mph 18.4 mph N/A   Overcast
1:15 PM 17.6 °F 2.7 °F 3.2 °F 53% 30.14 in 10.0 mi WNW 16.1 mph 19.6 mph N/A   Overcast
1:25 PM 19.4 °F 5.5 °F 3.2 °F 49% 30.14 in 10.0 mi West 15.0 mph 23.0 mph N/A   Mostly Cloudy
1:53 PM 17.1 °F 2.0 °F 3.0 °F 54% 30.17 in 10.0 mi WNW 16.1 mph 21.9 mph N/A   Overcast
2:15 PM 19.4 °F 6.6 °F 3.2 °F 49% 30.13 in 10.0 mi West 12.7 mph 20.7 mph N/A   Mostly Cloudy
2:27 PM 17.6 °F 1.7 °F 3.2 °F 53% 30.14 in 10.0 mi West 18.4 mph - N/A   Overcast
2:53 PM 17.1 °F 3.6 °F 3.0 °F 54% 30.18 in 10.0 mi West 12.7 mph - N/A   Overcast
3:53 PM 16.0 °F 2.3 °F 3.9 °F 59% 30.20 in 5.0 mi West 12.7 mph 21.9 mph 0.00 in Snow Light Snow
4:53 PM 16.0 °F 3.6 °F 3.9 °F 59% 30.22 in 10.0 mi West 10.4 mph - 0.00 in   Overcast
5:49 PM 15.8 °F 4.2 °F 3.2 °F 58% 30.20 in 10.0 mi West 9.2 mph - N/A   Scattered Clouds
5:53 PM 15.1 °F 2.5 °F 3.9 °F 61% 30.24 in 10.0 mi West 10.4 mph - N/A   Scattered Clouds
6:53 PM 14.0 °F 2.9 °F 3.9 °F 64% 30.25 in 10.0 mi West 8.1 mph - N/A   Partly Cloudy
7:53 PM 14.0 °F 3.9 °F 6.1 °F 71% 30.26 in 10.0 mi West 6.9 mph - N/A   Scattered Clouds
8:11 PM 14.0 °F 2.0 °F 6.8 °F 73% 30.22 in 10.0 mi West 9.2 mph - N/A   Mostly Cloudy
8:26 PM 15.8 °F 6.1 °F 6.8 °F 68% 30.22 in 10.0 mi West 6.9 mph - N/A   Overcast
8:53 PM 15.1 °F 3.3 °F 6.1 °F 68% 30.27 in 10.0 mi West 9.2 mph - N/A   Overcast
9:25 PM 15.8 °F 2.7 °F 6.8 °F 68% 30.23 in 10.0 mi West 11.5 mph 18.4 mph 0.00 in   Overcast
9:53 PM 16.0 °F 2.3 °F 6.1 °F 65% 30.28 in 10.0 mi WNW 12.7 mph 17.3 mph 0.00 in   Overcast
10:53 PM 16.0 °F 2.9 °F 6.1 °F 65% 30.29 in 9.0 mi WNW 11.5 mph - 0.00 in Snow Light Snow
11:53 PM 15.1 °F 1.1 °F 6.1 °F 68% 30.29 in 10.0 mi West 12.7 mph - 0.00 in   Overcast